Location: Haulchin
(50.3172°N, 3.4360°E)
Time: 11:16:44
(UTC+00:00)

Geosat - Pass Details

Date: 23 May 2024
Orbit: 760 x 763 km, 108.1° (Epoch: 14 June)

Event Time Altitude Azimuth Distance (km) Brightness Sun altitude
Rises 02:25:05 0° 139° (SE) 3,214 7.1 -10.5°
Reaches altitude 10° 02:27:21 10° 137° (SE) 2,293 6.4 -10.3°
Maximum altitude 02:32:19 68° 55° (NE) 825 4.4 -9.8°
Drops below altitude 10° 02:37:18 10° 334° (NNW) 2,309 6.8 -9.3°
Sets 02:39:36 0° 332° (NNW) 3,240 7.5 -9.1°
